Location: Centerville
(32.8776°N, 96.6203°W)
Time: 15:04:14
(UTC+00:00)

ASC 2 Rocket - Pass Details

Date: 17 June 2021
Orbit: 556 x 2344 km, 24.0° (Epoch: 27 July)

Event Time Altitude Azimuth Distance (km) Brightness Sun altitude
Exits shadow 10:14:20 17° 230° (SW) 1,640 4.6 -12.0°
Maximum altitude 10:16:41 25° 188° (S) 1,219 4.2 -11.6°
Drops below altitude 10° 10:20:06 10° 131° (SE) 1,839 5.6 -11.0°
Sets 10:22:31 0° 117° (ESE) 2,712 6.7 -10.6°
